| time (UTC) | temp F | wind direction | speed knots | gust knots | rain 1hr in | rain 24hr in | rain mn in | humidity % | barometer mb |
| 20260504151009 | 52 | 44 | 0.0 | 0.0 | 0.00 | 0.00 | 0.00 | 89 | 1011.2 |
| 20260504150509 | 51 | 44 | 0.0 | 0.0 | 0.00 | 0.00 | 0.00 | 89 | 1011.2 |
| 20260504141010 | 50 | 44 | 0.0 | 0.0 | 0.00 | 0.00 | 0.00 | 87 | 1011.0 |
| 20260504140507 | 49 | 44 | 0.0 | 0.0 | 0.00 | 0.00 | 0.00 | 88 | 1010.9 |
| 20260504130508 | 50 | 44 | 0.0 | 0.0 | 0.00 | 0.00 | 0.00 | 86 | 1010.6 |
| 20260504110505 | 52 | 44 | 0.0 | 0.0 | 0.00 | 0.00 | 0.00 | 82 | 1010.5 |
| 20260504100505 | 53 | 44 | 0.0 | 0.0 | 0.00 | 0.00 | 0.00 | 78 | 1010.6 |
| 20260504082008 | 56 | 44 | 0.0 | 0.0 | 0.00 | 0.00 | 0.00 | 74 | 1010.4 |
| 20260504081524 | 56 | 44 | 0.0 | 0.0 | 0.00 | 0.00 | 0.00 | 74 | 1010.4 |
| 20260504081003 | 56 | 44 | 0.0 | 1.7 | 0.00 | 0.00 | 0.00 | 73 | 1010.4 |
| 20260504080509 | 56 | 44 | 0.0 | 1.7 | 0.00 | 0.00 | 0.00 | 73 | 1010.5 |
| 20260504050506 | 65 | 44 | 0.0 | 0.9 | 0.00 | 0.00 | 0.00 | 61 | 1010.2 |
| 20260504050005 | 66 | 44 | 0.0 | 1.7 | 0.00 | 0.00 | 0.00 | 60 | 1010.1 |
| 20260504045503 | 66 | 44 | 0.0 | 1.7 | 0.00 | 0.00 | 0.00 | 57 | 1010.1 |
| 20260504045004 | 67 | 44 | 0.0 | 1.7 | 0.00 | 0.00 | 0.00 | 52 | 1010.1 |
| 20260504044505 | 67 | 44 | 0.0 | 1.7 | 0.00 | 0.00 | 0.00 | 52 | 1010.1 |
| 20260504044005 | 67 | 44 | 0.0 | 1.7 | 0.00 | 0.00 | 0.00 | 54 | 1010.1 |
| 20260504043504 | 67 | 44 | 0.0 | 1.7 | 0.00 | 0.00 | 0.00 | 52 | 1010.1 |
| 20260504043004 | 67 | 53 | 0.0 | 1.7 | 0.00 | 0.00 | 0.00 | 54 | 1010.0 |
| 20260504042504 | 68 | 79 | 0.0 | 1.7 | 0.00 | 0.00 | 0.00 | 55 | 1010.0 |
| 20260504042008 | 68 | 79 | 0.0 | 1.7 | 0.00 | 0.00 | 0.00 | 55 | 1010.0 |
| 20260504041517 | 68 | 79 | 0.0 | 1.7 | 0.00 | 0.00 | 0.00 | 56 | 1010.0 |
| 20260504041003 | 69 | 79 | 0.0 | 1.7 | 0.00 | 0.00 | 0.00 | 52 | 1010.0 |
| 20260504040504 | 69 | 79 | 0.0 | 1.7 | 0.00 | 0.00 | 0.00 | 51 | 1010.0 |
| 20260504040016 | 69 | 79 | 0.0 | 1.7 | 0.00 | 0.00 | 0.00 | 49 | 1010.1 |
| 20260504035504 | 70 | 79 | 0.0 | 1.7 | 0.00 | 0.00 | 0.00 | 50 | 1010.0 |
| 20260504035004 | 70 | 79 | 0.0 | 1.7 | 0.00 | 0.00 | 0.00 | 48 | 1010.0 |
| 20260504034514 | 70 | 79 | 0.0 | 1.7 | 0.00 | 0.00 | 0.00 | 50 | 1010.1 |
| 20260504034008 | 71 | 79 | 0.0 | 1.7 | 0.00 | 0.00 | 0.00 | 52 | 1010.1 |
| 20260504033503 | 71 | 79 | 0.0 | 1.7 | 0.00 | 0.00 | 0.00 | 52 | 1010.1 |
| 20260504033009 | 72 | 79 | 0.0 | 1.7 | 0.00 | 0.00 | 0.00 | 52 | 1010.1 |
| 20260504032508 | 72 | 79 | 0.0 | 1.7 | 0.00 | 0.00 | 0.00 | 49 | 1010.2 |
| 20260504032010 | 73 | 79 | 0.0 | 1.7 | 0.00 | 0.00 | 0.00 | 48 | 1010.1 |
| 20260504031504 | 74 | 79 | 0.0 | 1.7 | 0.00 | 0.00 | 0.00 | 48 | 1010.0 |
| 20260504031007 | 75 | 79 | 0.0 | 1.7 | 0.00 | 0.00 | 0.00 | 45 | 1010.1 |
| 20260504030509 | 76 | 59 | 0.0 | 1.7 | 0.00 | 0.00 | 0.00 | 43 | 1010.2 |
| 20260504030004 | 76 | 59 | 0.0 | 0.9 | 0.00 | 0.00 | 0.00 | 42 | 1010.3 |
| 20260504025507 | 77 | 54 | 0.0 | 0.0 | 0.00 | 0.00 | 0.00 | 37 | 1010.3 |
| 20260504025007 | 78 | 50 | 0.0 | 0.0 | 0.00 | 0.00 | 0.00 | 40 | 1010.3 |
| 20260504024522 | 78 | 50 | 0.0 | 0.9 | 0.00 | 0.00 | 0.00 | 36 | 1010.3 |
| 20260504024004 | 79 | 49 | 0.0 | 1.7 | 0.00 | 0.00 | 0.00 | 38 | 1010.3 |
| 20260504023508 | 80 | 49 | 0.0 | 1.7 | 0.00 | 0.00 | 0.00 | 38 | 1010.3 |
| 20260504023018 | 81 | 342 | 0.0 | 1.7 | 0.00 | 0.00 | 0.00 | 30 | 1010.3 |
| 20260504022504 | 81 | 351 | 0.0 | 1.7 | 0.00 | 0.00 | 0.00 | 32 | 1010.3 |
| 20260504022006 | 82 | 20 | 0.0 | 1.7 | 0.00 | 0.00 | 0.00 | 33 | 1010.3 |
| 20260504021513 | 82 | 20 | 0.0 | 1.7 | 0.00 | 0.00 | 0.00 | 30 | 1010.3 |
| 20260504021005 | 83 | 20 | 0.0 | 3.5 | 0.00 | 0.00 | 0.00 | 31 | 1010.4 |
| 20260504020506 | 83 | 350 | 0.9 | 3.5 | 0.00 | 0.00 | 0.00 | 28 | 1010.3 |
| 20260504020008 | 84 | 85 | 0.0 | 1.7 | 0.00 | 0.00 | 0.00 | 27 | 1010.4 |
| 20260504015509 | 84 | 352 | 0.0 | 3.5 | 0.00 | 0.00 | 0.00 | 26 | 1010.4 |
| 20260504015010 | 84 | 26 | 0.0 | 3.5 | 0.00 | 0.00 | 0.00 | 28 | 1010.4 |
| 20260504014516 | 84 | 352 | 0.0 | 1.7 | 0.00 | 0.00 | 0.00 | 27 | 1010.5 |
| 20260504014009 | 84 | 132 | 0.0 | 1.7 | 0.00 | 0.00 | 0.00 | 25 | 1010.5 |
| 20260504013508 | 84 | 106 | 0.0 | 2.6 | 0.00 | 0.00 | 0.00 | 25 | 1010.5 |
| 20260504013010 | 84 | 360 | 0.9 | 5.2 | 0.00 | 0.00 | 0.00 | 23 | 1010.5 |
| 20260504012505 | 84 | 78 | 2.6 | 5.2 | 0.00 | 0.00 | 0.00 | 22 | 1010.7 |
| 20260504012008 | 84 | 45 | 1.7 | 7.0 | 0.00 | 0.00 | 0.00 | 23 | 1010.7 |
| 20260504011528 | 84 | 74 | 1.7 | 7.0 | 0.00 | 0.00 | 0.00 | 21 | 1010.7 |
| 20260504011006 | 84 | 49 | 1.7 | 7.8 | 0.00 | 0.00 | 0.00 | 21 | 1010.7 |
| 20260504010505 | 85 | 51 | 0.0 | 5.2 | 0.00 | 0.00 | 0.00 | 23 | 1010.8 |
| 20260504010025 | 85 | 17 | 1.7 | 8.7 | 0.00 | 0.00 | 0.00 | 23 | 1010.8 |
| 20260504005503 | 84 | 336 | 3.5 | 8.7 | 0.00 | 0.00 | 0.00 | 22 | 1010.8 |
| 20260504005007 | 84 | 32 | 0.9 | 4.3 | 0.00 | 0.00 | 0.00 | 24 | 1010.7 |
| 20260504004521 | 84 | 80 | 0.9 | 7.8 | 0.00 | 0.00 | 0.00 | 22 | 1010.8 |
| 20260504004008 | 84 | 60 | 0.9 | 7.8 | 0.00 | 0.00 | 0.00 | 23 | 1010.9 |
| 20260504003508 | 85 | 64 | 1.7 | 5.2 | 0.00 | 0.00 | 0.00 | 23 | 1010.9 |
| 20260504003016 | 85 | 352 | 0.0 | 9.6 | 0.00 | 0.00 | 0.00 | 23 | 1010.9 |
| 20260504002505 | 85 | 75 | 1.7 | 9.6 | 0.00 | 0.00 | 0.00 | 22 | 1010.9 |
| 20260504002012 | 85 | 67 | 1.7 | 7.8 | 0.00 | 0.00 | 0.00 | 20 | 1010.9 |
| 20260504001512 | 85 | 60 | 0.9 | 5.2 | 0.00 | 0.00 | 0.00 | 23 | 1011.0 |
| 20260504001009 | 85 | 28 | 0.9 | 5.2 | 0.00 | 0.00 | 0.00 | 19 | 1011.0 |
| 20260504000510 | 85 | 22 | 1.7 | 7.8 | 0.00 | 0.00 | 0.00 | 21 | 1011.1 |
| 20260504000011 | 85 | 335 | 0.9 | 7.8 | 0.00 | 0.00 | 0.00 | 22 | 1011.2 |
| 20260503235508 | 85 | 350 | 1.7 | 7.8 | 0.00 | 0.00 | 0.00 | 21 | 1011.3 |
| 20260503235008 | 85 | 12 | 3.5 | 9.6 | 0.00 | 0.00 | 0.00 | 23 | 1011.4 |
| 20260503234528 | 85 | 26 | 2.6 | 9.6 | 0.00 | 0.00 | 0.00 | 22 | 1011.4 |
| 20260503234005 | 85 | 340 | 3.5 | 8.7 | 0.00 | 0.00 | 0.00 | 20 | 1011.4 |
| 20260503233508 | 86 | 336 | 0.9 | 7.8 | 0.00 | 0.00 | 0.00 | 19 | 1011.4 |
| 20260503233024 | 86 | 40 | 2.6 | 9.6 | 0.00 | 0.00 | 0.00 | 20 | 1011.5 |
| 20260503232505 | 85 | 25 | 0.9 | 9.6 | 0.00 | 0.00 | 0.00 | 19 | 1011.5 |
| 20260503232005 | 86 | 345 | 0.9 | 8.7 | 0.00 | 0.00 | 0.00 | 21 | 1011.5 |
| 20260503231522 | 85 | 45 | 2.6 | 8.7 | 0.00 | 0.00 | 0.00 | 21 | 1011.6 |
| 20260503231009 | 85 | 31 | 0.9 | 7.0 | 0.00 | 0.00 | 0.00 | 20 | 1011.7 |
| 20260503230508 | 86 | 86 | 2.6 | 8.7 | 0.00 | 0.00 | 0.00 | 23 | 1011.8 |
| 20260503230020 | 86 | 342 | 0.9 | 8.7 | 0.00 | 0.00 | 0.00 | 21 | 1011.8 |
| 20260503225509 | 86 | 5 | 3.5 | 8.7 | 0.00 | 0.00 | 0.00 | 20 | 1011.8 |
| 20260503225011 | 86 | 22 | 1.7 | 8.7 | 0.00 | 0.00 | 0.00 | 21 | 1011.9 |
| 20260503224516 | 86 | 33 | 0.9 | 3.5 | 0.00 | 0.00 | 0.00 | 21 | 1011.9 |
| 20260503224010 | 86 | 90 | 0.9 | 2.6 | 0.00 | 0.00 | 0.00 | 23 | 1012.0 |
| 20260503223510 | 86 | 340 | 0.9 | 4.3 | 0.00 | 0.00 | 0.00 | 22 | 1012.0 |
| 20260503223022 | 86 | 79 | 1.7 | 4.3 | 0.00 | 0.00 | 0.00 | 23 | 1012.0 |
| 20260503222504 | 86 | 71 | 0.0 | 3.5 | 0.00 | 0.00 | 0.00 | 23 | 1012.0 |
| 20260503222012 | 85 | 40 | 0.9 | 7.0 | 0.00 | 0.00 | 0.00 | 25 | 1012.1 |
| 20260503221527 | 85 | 10 | 0.9 | 7.0 | 0.00 | 0.00 | 0.00 | 22 | 1012.2 |
| 20260503221010 | 85 | 51 | 2.6 | 8.7 | 0.00 | 0.00 | 0.00 | 24 | 1012.2 |
| 20260503220509 | 85 | 55 | 1.7 | 8.7 | 0.00 | 0.00 | 0.00 | 24 | 1012.2 |
| 20260503220034 | 85 | 59 | 0.0 | 4.3 | 0.00 | 0.00 | 0.00 | 26 | 1012.2 |
| 20260503215505 | 85 | 71 | 0.9 | 8.7 | 0.00 | 0.00 | 0.00 | 24 | 1012.2 |
| 20260503215011 | 85 | 352 | 0.9 | 8.7 | 0.00 | 0.00 | 0.00 | 26 | 1012.3 |
| 20260503214522 | 84 | 48 | 1.7 | 6.1 | 0.00 | 0.00 | 0.00 | 25 | 1012.3 |
| 20260503214008 | 84 | 348 | 2.6 | 7.8 | 0.00 | 0.00 | 0.00 | 24 | 1012.3 |
| 20260503213509 | 84 | 14 | 3.5 | 7.8 | 0.00 | 0.00 | 0.00 | 24 | 1012.3 |
| 20260503213032 | 84 | 350 | 0.9 | 7.8 | 0.00 | 0.00 | 0.00 | 26 | 1012.4 |
| 20260503212507 | 84 | 345 | 1.7 | 7.8 | 0.00 | 0.00 | 0.00 | 24 | 1012.5 |
| 20260503212011 | 84 | 5 | 4.3 | 7.0 | 0.00 | 0.00 | 0.00 | 23 | 1012.5 |
| 20260503211523 | 84 | 360 | 0.9 | 5.2 | 0.00 | 0.00 | 0.00 | 28 | 1012.6 |
| 20260503211010 | 83 | 24 | 1.7 | 7.0 | 0.00 | 0.00 | 0.00 | 29 | 1012.7 |
| 20260503210509 | 83 | 360 | 1.7 | 7.0 | 0.00 | 0.00 | 0.00 | 28 | 1012.8 |
| 20260503210018 | 83 | 331 | 0.9 | 5.2 | 0.00 | 0.00 | 0.00 | 30 | 1012.9 |
| 20260503205512 | 82 | 5 | 1.7 | 4.3 | 0.00 | 0.00 | 0.00 | 29 | 1012.9 |
| 20260503205010 | 82 | 25 | 2.6 | 5.2 | 0.00 | 0.00 | 0.00 | 28 | 1013.0 |
| 20260503204541 | 82 | 338 | 1.7 | 5.2 | 0.00 | 0.00 | 0.00 | 29 | 1013.0 |
| 20260503204007 | 82 | 5 | 1.7 | 4.3 | 0.00 | 0.00 | 0.00 | 29 | 1013.0 |
| 20260503203507 | 82 | 21 | 2.6 | 7.0 | 0.00 | 0.00 | 0.00 | 31 | 1013.0 |
| 20260503203026 | 81 | 293 | 2.6 | 7.0 | 0.00 | 0.00 | 0.00 | 29 | 1013.1 |
| 20260503202512 | 81 | 5 | 0.9 | 5.2 | 0.00 | 0.00 | 0.00 | 33 | 1013.2 |
| 20260503202011 | 80 | 331 | 1.7 | 4.3 | 0.00 | 0.00 | 0.00 | 32 | 1013.3 |
| 20260503201510 | 79 | 360 | 2.6 | 7.0 | 0.00 | 0.00 | 0.00 | 35 | 1013.4 |
| 20260503201007 | 79 | 360 | 2.6 | 9.6 | 0.00 | 0.00 | 0.00 | 35 | 1013.5 |
| 20260503200509 | 79 | 18 | 1.7 | 9.6 | 0.00 | 0.00 | 0.00 | 35 | 1013.6 |
| 20260503200006 | 79 | 34 | 3.5 | 7.0 | 0.00 | 0.00 | 0.00 | 35 | 1013.7 |
| 20260503195506 | 78 | 14 | 3.5 | 7.8 | 0.00 | 0.00 | 0.00 | 37 | 1013.8 |
| 20260503195010 | 78 | 41 | 3.5 | 7.8 | 0.00 | 0.00 | 0.00 | 37 | 1013.9 |
| 20260503194524 | 77 | 352 | 2.6 | 5.2 | 0.00 | 0.00 | 0.00 | 39 | 1013.9 |
| 20260503194004 | 77 | 323 | 3.5 | 5.2 | 0.00 | 0.00 | 0.00 | 41 | 1014.0 |
| 20260503193510 | 77 | 349 | 1.7 | 4.3 | 0.00 | 0.00 | 0.00 | 42 | 1014.0 |
| 20260503193020 | 77 | 352 | 0.9 | 4.3 | 0.00 | 0.00 | 0.00 | 43 | 1014.0 |
| 20260503192504 | 77 | 32 | 2.6 | 4.3 | 0.00 | 0.00 | 0.00 | 42 | 1014.1 |
| 20260503192006 | 76 | 346 | 2.6 | 4.3 | 0.00 | 0.00 | 0.00 | 41 | 1014.0 |
| 20260503191517 | 76 | 342 | 0.9 | 2.6 | 0.00 | 0.00 | 0.00 | 41 | 1014.0 |
| 20260503191013 | 75 | 275 | 0.0 | 2.6 | 0.00 | 0.00 | 0.00 | 41 | 1014.1 |
| 20260503190505 | 75 | 273 | 0.9 | 2.6 | 0.00 | 0.00 | 0.00 | 43 | 1014.1 |
| 20260503190015 | 74 | 237 | 0.9 | 3.5 | 0.00 | 0.00 | 0.00 | 43 | 1014.2 |
| 20260503185509 | 74 | 278 | 1.7 | 4.3 | 0.00 | 0.00 | 0.00 | 43 | 1014.2 |
| 20260503185003 | 73 | 203 | 1.7 | 4.3 | 0.00 | 0.00 | 0.00 | 44 | 1014.4 |
| 20260503184509 | 73 | 268 | 0.0 | 2.6 | 0.00 | 0.00 | 0.00 | 44 | 1014.4 |
| 20260503184004 | 72 | 297 | 0.9 | 5.2 | 0.00 | 0.00 | 0.00 | 43 | 1014.5 |
| 20260503183509 | 72 | 294 | 1.7 | 4.3 | 0.00 | 0.00 | 0.00 | 46 | 1014.5 |
| 20260503183008 | 71 | 182 | 0.9 | 4.3 | 0.00 | 0.00 | 0.00 | 48 | 1014.6 |
| 20260503182509 | 71 | 352 | 0.0 | 2.6 | 0.00 | 0.00 | 0.00 | 49 | 1014.7 |
| 20260503182009 | 70 | 300 | 0.0 | 3.5 | 0.00 | 0.00 | 0.00 | 48 | 1014.7 |
| 20260503181524 | 70 | 278 | 0.0 | 3.5 | 0.00 | 0.00 | 0.00 | 50 | 1014.7 |
| 20260503181006 | 69 | 244 | 0.0 | 2.6 | 0.00 | 0.00 | 0.00 | 52 | 1014.6 |
| 20260503180507 | 68 | 330 | 0.9 | 2.6 | 0.00 | 0.00 | 0.00 | 52 | 1014.7 |
| 20260503180029 | 67 | 194 | 1.7 | 2.6 | 0.00 | 0.00 | 0.00 | 53 | 1014.7 |
| 20260503175504 | 67 | 269 | 0.0 | 2.6 | 0.00 | 0.00 | 0.00 | 53 | 1014.9 |
| 20260503175008 | 66 | 350 | 0.9 | 2.6 | 0.00 | 0.00 | 0.00 | 53 | 1015.0 |
| 20260503174523 | 66 | 302 | 0.0 | 1.7 | 0.00 | 0.00 | 0.00 | 55 | 1014.9 |
| 20260503174007 | 65 | 188 | 0.0 | 3.5 | 0.00 | 0.00 | 0.00 | 54 | 1015.0 |
| 20260503173507 | 65 | 352 | 0.0 | 3.5 | 0.00 | 0.00 | 0.00 | 55 | 1015.0 |
| 20260503173027 | 65 | 262 | 0.9 | 2.6 | 0.00 | 0.00 | 0.00 | 55 | 1015.1 |
| 20260503172509 | 64 | 335 | 0.9 | 2.6 | 0.00 | 0.00 | 0.00 | 55 | 1015.1 |
| 20260503172012 | 64 | 320 | 1.7 | 2.6 | 0.00 | 0.00 | 0.00 | 56 | 1015.1 |
| 20260503171519 | 63 | 306 | 0.0 | 1.7 | 0.00 | 0.00 | 0.00 | 58 | 1015.2 |
| 20260503171011 | 62 | 278 | 0.9 | 1.7 | 0.00 | 0.00 | 0.00 | 56 | 1015.2 |
| 20260503170509 | 62 | 183 | 0.9 | 1.7 | 0.00 | 0.00 | 0.00 | 62 | 1015.2 |